#timestamp,LO_Frequency,Hit,StdDev 
1696896015.8,286046998.6,N
1696896035.7,286046996.9,P
1696896055.5,286046996.5,Y
1696896075.4,286047000.4,P
1696896095.2,286047000.6,N
1696896115.0,286047000.6,N
1696896115.9,286047000.6,N
1696896135.8,286047000.4,N
1696896155.6,286047001.2,N
1696896175.4,286046998.5,N
1696896195.3,286047000.6,N
1696896215.1,286047000.2,N
1696896235.9,286046998.4,N
1696896255.7,286047000.7,N
1696896275.5,286047000.7,N
1696896295.4,286046998.2,N
1696896315.2,286047000.6,N
1696896335.1,286046999.7,N
1696896336.0,286046999.7,N
1696896355.8,286046999.8,N
1696896375.7,286047000.5,N
1696896395.5,286046999.8,N
1696896415.3,286047000.7,N
1696896435.2,286047000.8,N
1696896455.0,286047001.1,N
1696896455.9,286047001.1,N
1696896475.7,286046996.5,Y
1696896495.6,286046996.6,P
1696896515.4,286046999.3,N
1696896535.3,286046998.4,N
1696896555.1,286046998.5,N
1696896575.8,286046998.6,N
1696896595.7,286046998.4,N
1696896615.5,286046998.9,N
1696896635.4,286047000.7,N
1696896655.2,286046998.2,N
1696896675.0,286046998.3,N
1696896675.9,286046998.3,N
1696896695.8,286046998.4,N
1696896715.6,286046998.3,N
1696896735.5,286046998.2,N
1696896755.3,286046998.8,N
1696896775.1,286046998.6,N
1696896795.9,286046998.1,N
1696896815.7,286047001.2,N
1696896835.9,286047000.7,N
1696896855.7,286047000.8,N
1696896875.6,286046998.6,N
1696896895.4,286046998.3,N
1696896915.2,286046999.4,N
1696896935.1,286046998.7,N
1696896936.0,286046998.7,N
1696896955.8,286046999.4,N
1696896975.6,286046999.4,N
1696896995.5,286046999.1,N
1696897015.3,286046996.5,Y
1696897035.2,286046999.3,P
1696897055.0,286046999.3,P
1696897055.9,286046999.3,P
1696897075.8,286046998.2,Y
1696897095.6,286047002.1,P
1696897115.4,286047002.3,N
1696897135.3,286047001.7,N
1696897155.1,286047004.4,Y
1696897175.9,286047001.6,P
1696897195.7,286047004.3,P
1696897215.5,286047004.3,P
1696897235.4,286047004.2,N
1696897255.2,286047002.9,N
1696897275.0,286047003.2,N
1696897276.0,286047003.2,N
1696897295.8,286047005.7,Y
1696897315.6,286047001.5,P
1696897335.5,286047002.2,N
1696897355.3,286047002.5,P
1696897375.1,286047001.6,N
1696897395.9,286047004.0,Y
1696897415.7,286047000.4,P
1696897435.6,286046999.8,N
1696897455.4,286047000.2,N
1696897475.2,286047000.2,N
1696897495.1,286046999.9,N
1696897496.0,286046999.9,N
1696897515.8,286047002.4,Y
1696897535.7,286047002.8,P
1696897555.5,286046999.9,N
1696897575.3,286047002.6,N
1696897595.2,286047002.1,N
1696897615.0,286047002.5,N
1696897615.9,286047002.5,N
1696897635.8,286047002.2,N
1696897655.6,286047003.8,Y
1696897675.5,286046999.7,P
1696897695.3,286047000.4,N
1696897715.1,286047000.4,N
1696897735.9,286047002.8,Y
1696897755.7,286047000.0,P
1696897775.5,286047000.6,N
1696897795.4,286047000.6,N
1696897815.2,286047000.7,N
1696897835.1,286047000.0,N
1696897836.0,286047000.0,N
1696897855.8,286047000.4,N
1696897875.6,286046999.7,N
1696897895.5,286046999.7,N
1696897915.3,286047000.1,N
1696897935.1,286047001.1,Y
1696897955.9,286047000.6,P
1696897975.7,286046998.6,P
1696897995.6,286047000.8,N
1696898015.4,286047001.1,N
1696898035.2,286047000.9,N
1696898055.1,286046998.3,N
1696898056.0,286046998.3,N
1696898075.8,286047000.4,N
1696898095.7,286047000.4,N
1696898115.5,286047001.2,N
1696898135.3,286047001.2,N
1696898155.2,286046998.1,N
1696898175.0,286047001.1,N
1696898175.9,286047001.1,N
1696898195.8,286047000.2,N
1696898215.6,286046998.3,N
1696898235.4,286046998.7,N
1696898255.3,286046998.9,N
1696898275.1,286046998.5,N
1696898295.8,286046998.2,N
1696898315.7,286047000.5,N
1696898335.5,286047000.0,N
1696898355.4,286047000.2,N
1696898375.2,286047002.7,N
1696898395.0,286047002.8,N
1696898395.9,286047002.8,N
1696898415.8,286047002.0,N
1696898435.6,286046999.8,N
1696898455.5,286047002.0,N
1696898475.3,286047001.6,N
1696898495.1,286047001.8,N
1696898515.9,286047002.2,N
1696898535.7,286047002.2,N
1696898555.6,286047002.3,N
1696898575.4,286047002.7,N
1696898595.2,286047002.5,N
1696898615.1,286047001.9,N
1696898616.0,286047001.9,N
1696898635.8,286047001.5,N
1696898655.7,286047001.9,N
1696898675.5,286047001.3,N
1696898695.3,286047002.3,N
1696898715.2,286047004.3,N
1696898735.0,286047001.7,N
1696898735.9,286047001.7,N
1696898755.7,286047001.9,N
1696898775.6,286047001.6,N
1696898795.4,286047001.6,N
1696898815.3,286047001.4,N
1696898835.1,286047001.7,N
1696898836.0,286047001.7,N
1696898855.8,286047001.3,N
1696898875.7,286047001.4,N
1696898895.5,286047001.4,N
1696898915.4,286047003.7,Y
1696898935.2,286047001.8,P
1696898955.0,286047001.8,P
1696898955.9,286047001.8,P
1696898975.8,286046999.9,N
1696898995.6,286046999.7,N
1696899015.4,286047002.6,N
1696899035.3,286047000.2,N
1696899055.1,286047002.6,N
1696899075.9,286047000.0,N
1696899095.7,286047000.0,N
1696899115.5,286047000.0,N
1696899135.4,286047002.3,N
1696899155.2,286047004.0,Y
1696899175.1,286047000.4,P
1696899176.0,286047000.4,N
1696899195.8,286047000.1,N
1696899215.6,286047000.7,N
1696899235.5,286047001.0,N
1696899255.3,286047000.5,N
1696899275.1,286046999.8,N
1696899295.6,286047000.0,N
1696899315.4,286046998.1,Y
1696899335.2,286047000.8,P
1696899355.1,286047000.7,P
1696899356.0,286047000.7,P
1696899375.8,286047000.8,Y
1696899395.7,286046998.5,P
1696899415.5,286046998.9,N
1696899435.3,286046998.2,N
1696899455.2,286046998.3,N
1696899475.0,286046998.4,N
1696899475.9,286046998.4,N
1696899495.8,286046999.0,N
1696899515.6,286046998.4,N
1696899535.4,286047000.6,N
1696899555.3,286046998.6,N
1696899575.1,286047001.1,N
1696899595.9,286047000.8,N
